[TLELIST] Archives

 

[list_settings.list_name] Current TLEs

February 6th 2010 PST

HST 1 20580U 90037B 10036.19003978 .00000395 00000-0 17439-4 0 5138 2 20580 028.4700 021.5203 0003575 233.5784 126.4511 15.00888083884891 ISS (ZARYA) 1 25544U 98067A 10036.46526808 .00016977 00000-0 11198-3 0 5202 2 25544 051.6443 187.0175 0010760 285.9782 175.0936 15.75694971642725 CXO 1 25867U 99040B 10036.83333333 -.00000527 00000-0 10000-3 0 4252 2 25867 066.4941 059.7616 7954223 275.2054 357.4626 00.37808419 5896 ____________________________________________________________________ These 2-Line ...Continue Reading

[list_settings.list_name] Current TLEs

February 5th 2010 PST

HST 1 20580U 90037B 10034.26164458 .00000371 00000-0 15592-4 0 5126 2 20580 028.4698 034.1064 0003637 214.2224 145.8149 15.00886988884609 ISS (ZARYA) 1 25544U 98067A 10035.38351289 .00015217 00000-0 10103-3 0 5145 2 25544 051.6448 192.5852 0010686 280.9766 159.7494 15.75649593642556 CXO 1 25867U 99040B 10034.20833333 -.00000358 00000-0 10000-3 0 4247 2 25867 066.4793 059.8394 7946493 275.2285 000.0856 00.37805226 5889 ____________________________________________________________________ These 2-Line ...Continue Reading

[list_settings.list_name] Current TLEs

February 4th 2010 PST

HST 1 20580U 90037B 10034.26164458 .00000371 00000-0 15592-4 0 5126 2 20580 028.4698 034.1064 0003637 214.2224 145.8149 15.00886988884609 ISS (ZARYA) 1 25544U 98067A 10034.43438116 .00013556 00000-0 90619-4 0 5050 2 25544 051.6453 197.4702 0010755 277.2549 176.0713 15.75612596642408 CXO 1 25867U 99040B 10034.20833333 -.00000358 00000-0 10000-3 0 4247 2 25867 066.4793 059.8394 7946493 275.2285 000.0856 00.37805226 5889 ____________________________________________________________________ These 2-Line ...Continue Reading

[list_settings.list_name] Current TLEs

February 3rd 2010 PST

HST 1 20580U 90037B 10031.46879352 .00000364 00000-0 15047-4 0 5117 2 20580 028.4696 052.3340 0003648 185.6016 174.4458 15.00885832884189 ISS (ZARYA) 1 25544U 98067A 10033.35058106 .00011627 00000-0 78472-4 0 4988 2 25544 051.6438 203.0491 0010852 272.6302 149.0461 15.75573612642230 CXO 1 25867U 99040B 10034.20833333 -.00000358 00000-0 10000-3 0 4247 2 25867 066.4793 059.8394 7946493 275.2285 000.0856 00.37805226 5889 ____________________________________________________________________ These 2-Line ...Continue Reading

[list_settings.list_name] Current TLEs

February 2nd 2010 PST

HST 1 20580U 90037B 10031.46879352 .00000364 00000-0 15047-4 0 5117 2 20580 028.4696 052.3340 0003648 185.6016 174.4458 15.00885832884189 ISS (ZARYA) 1 25544U 98067A 10032.25962963 .00011331 00000-0 76674-4 0 4918 2 25544 051.6439 208.6638 0010870 268.1734 081.4265 15.75545439642051 CXO 1 25867U 99040B 10031.58333333 -.00000255 00000-0 10000-3 0 4235 2 25867 066.4599 059.9541 7942638 275.2440 002.6415 00.37808737 5876 ____________________________________________________________________ These 2-Line ...Continue Reading

[list_settings.list_name] Current TLEs

February 1st 2010 PST

HST 1 20580U 90037B 10028.21046764 .00000421 00000-0 19433-4 0 5105 2 20580 028.4700 073.5965 0003596 151.8346 208.2442 15.00884921883698 ISS (ZARYA) 1 25544U 98067A 10031.32060626 .00011803 00000-0 79755-4 0 4850 2 25544 051.6442 213.4969 0010920 264.2788 155.6624 15.75524863641913 CXO 1 25867U 99040B 10031.58333333 -.00000255 00000-0 10000-3 0 4235 2 25867 066.4599 059.9541 7942638 275.2440 002.6415 00.37808737 5876 ____________________________________________________________________ These 2-Line ...Continue Reading

[list_settings.list_name] Current TLEs

January 31st 2010 PST

HST 1 20580U 90037B 10028.21046764 .00000421 00000-0 19433-4 0 5105 2 20580 028.4700 073.5965 0003596 151.8346 208.2442 15.00884921883698 ISS (ZARYA) 1 25544U 98067A 10030.37081978 .00012345 00000-0 83298-4 0 4788 2 25544 051.6440 218.3853 0010913 260.8255 168.4437 15.75503746641764 CXO 1 25867U 99040B 10 26.33871883 .00000000 00000-0 10000-3 0 4225 2 25867 066.4395 060.2713 7928771 275.2674 008.5168 00.37820665 5859 ____________________________________________________________________ These 2-Line ...Continue Reading

[list_settings.list_name] Current TLEs

January 30th 2010 PST

HST 1 20580U 90037B 10028.21046764 .00000421 00000-0 19433-4 0 5105 2 20580 028.4700 073.5965 0003596 151.8346 208.2442 15.00884921883698 ISS (ZARYA) 1 25544U 98067A 10029.34410880 .00013838 00000-0 92921-4 0 4704 2 25544 051.6434 223.6674 0010990 256.7256 105.3616 15.75482107641606 CXO 1 25867U 99040B 10 26.33871883 .00000000 00000-0 10000-3 0 4225 2 25867 066.4395 060.2713 7928771 275.2674 008.5168 00.37820665 5859 ____________________________________________________________________ These 2-Line ...Continue Reading

[list_settings.list_name] Current TLEs

January 29th 2010 PST

HST 1 20580U 90037B 10028.21046764 .00000421 00000-0 19433-4 0 5105 2 20580 028.4700 073.5965 0003596 151.8346 208.2442 15.00884921883698 ISS (ZARYA) 1 25544U 98067A 10028.26350694 .00014548 00000-0 97587-4 0 4634 2 25544 051.6439 229.2290 0010952 252.2142 096.9175 15.75453950641429 CXO 1 25867U 99040B 10028.87500000 -.00000289 00000-0 10000-3 0 4215 2 25867 066.4508 060.1648 7935500 275.2174 353.8915 00.37802024 5860 ____________________________________________________________________ These 2-Line ...Continue Reading

[list_settings.list_name] Current TLEs

January 28th 2010 PST

HST 1 20580U 90037B 10026.54805451 .00000429 00000-0 20040-4 0 5097 2 20580 028.4698 084.4511 0003518 138.5221 221.5624 15.00884058883444 ISS (ZARYA) 1 25544U 98067A 10027.37989583 .00015018 00000-0 10071-3 0 4578 2 25544 051.6442 233.7765 0010949 248.3854 125.8908 15.75428531641290 CXO 1 25867U 99040B 10026.25000000 -.00000278 00000-0 10000-3 0 4207 2 25867 066.4478 060.2760 7928411 275.2581 356.4306 00.37796094 5858 ____________________________________________________________________ These 2-Line ...Continue Reading
  • This mailing list is a public mailing list - anyone may join or leave, at any time.
  • This mailing list is announce-only.

International Space Station (ISS) / Hubble Space Telescope (HST) / Chandra X-Ray Observatory Orbital Data via EMAIL

Privacy Policy:

Private list